User: anonymous   Login
Location: Guayaquil
(2.1667°S, 79.9000°W)
Time: 16:35:26
(UTC-05:00)
Language:

NEE 01 PEGASUS - Orbit

View from above orbital plane
View from above orbital plane
View from above satellite
View from above satellite

Ground track
Ground track

The orbit data is extracted from the following two-line orbital elements,

1 39151U 13018B   18140.24217129  .00000152  00000-0  27123-4 0  9991
2 39151  97.9740 234.5064 0017990  43.1421 317.1197 14.79895949273389
Epoch (UTC): 20 May 2018 05:48:43
Eccentricity: 0.0017990
inclination: 97.9740°
perigee height: 617 km
apogee height: 642 km
right ascension of ascending node: 234.5064°
argument of perigee: 43.1421°
revolutions per day: 14.79895949
mean anomaly at epoch: 317.1197°
orbit number at epoch: 27338

The dashed part of the orbit path shows where the satellite is in the earth's shadow,  

DLR